Location: Innsbruck
(47.2657°N, 11.3914°E)
Time: 01:46:19
(UTC+01:00)

XW-2F - Pass Details

Date: 06 December 2021
Orbit: 495 x 515 km, 97.5° (Epoch: 16 January)

Event Time Altitude Azimuth Distance (km) Brightness Sun altitude
Rises 18:10:29 0° 190° (S) 2,602 ? -17.2°
Reaches altitude 10° 18:12:44 10° 201° (SSW) 1,726 ? -17.5°
Maximum altitude 18:16:03 30° 264° (W) 939 ? -18.1°
Drops below altitude 10° 18:19:24 10° 327° (NNW) 1,750 ? -18.6°
Sets 18:21:43 0° 338° (NNW) 2,645 ? -19.0°
